Flag for Germany Past Weather in Rheda-Wiedenbrück, North Rhine-Westphalia, Germany — Yesterday and Last 2 Weeks

Now
73 °F

Scattered clouds.


Feels Like: 77 °F
Forecast: 57 / 70 °F
Wind: 9 mph from East

Location: Paderborn / Lippstadt

Current Time: May 28, 2016 at 3:52:50 PM

Latest Report: May 28, 2016 at 3:20 PM


Visibility: N/A

Pressure: 29.89 "Hg

Humidity: 53%

Dew Point: 55 °F

Location of Rheda-WiedenbrückLocation

Past Weather in Rheda-Wiedenbrück — Graph

°F

Rheda-Wiedenbrück Temperature Yesterday

Maximum temperature yesterday: 70 °F (at 1:50 PM)
Minimum temperature yesterday: 54 °F (at 5:20 AM)
Average temperature yesterday: 62 °F

High & Low Weather Summary for the Past Weeks

 TemperatureHumidityPressure
High79 °F (May 22, 1:50 PM)100% (May 15, 2:50 AM)30.09 "Hg (May 15, 2:50 AM)
Low37 °F (May 16, 4:20 AM)27% (May 13, 3:50 PM)29.59 "Hg (May 13, 2:50 PM)
Average56 °F75%29.94 "Hg
* Reported May 13 2:20 PM — May 28 2:20 PM, Rheda-Wiedenbrück, Weather by CustomWeather, © 2016

Note: Actual official high and low records may vary slightly from our data, if they occured in-between our weather recording intervals... More about our weather records

Advertising

Rheda-Wiedenbrück Weather History for the Previous 24 Hours

Scroll right to see more
 ConditionsComfort  
Time TempWeatherWind HumidityBarometerVisibility
2:20 PM
Sat, May 28
70 °FScattered clouds.6 mph60%29.92 "HgN/A
1:50 PM72 °FScattered clouds.5 mph57%29.92 "HgN/A
1:20 PM70 °FScattered clouds.9 mph57%29.92 "HgN/A
12:50 PM70 °FScattered clouds.8 mph57%29.92 "HgN/A
12:20 PM70 °FScattered clouds.7 mph60%29.92 "HgN/A
11:50 AM68 °FPassing clouds.2 mph64%29.92 "HgN/A
11:20 AM70 °FPassing clouds.6 mph57%29.92 "HgN/A
10:50 AM68 °FPassing clouds.7 mph64%29.95 "HgN/A
10:20 AM68 °FPassing clouds.9 mph69%29.95 "HgN/A
9:50 AM66 °FClear.8 mph73%29.95 "Hg5 mi
9:20 AM64 °FClear.9 mph78%29.95 "Hg4 mi
8:50 AM63 °FClear.7 mph83%29.95 "Hg4 mi
8:20 AM63 °FClear.7 mph83%29.95 "Hg5 mi
7:50 AM61 °FClear.6 mph88%29.95 "Hg5 mi
7:20 AM59 °FClear.7 mph94%29.95 "Hg4 mi
6:50 AM57 °FClear.6 mph100%29.95 "Hg4 mi
6:20 AM57 °FClear.6 mph100%29.95 "Hg4 mi
5:50 AM57 °FClear.5 mph100%29.95 "Hg10 mi
5:20 AM57 °FClear.3 mph100%29.98 "Hg10 mi
4:50 AM57 °FClear.6 mph100%29.95 "Hg10 mi
4:20 AM57 °FClear.7 mph100%29.95 "Hg10 mi
3:50 AM57 °FClear.7 mph94%29.98 "Hg10 mi
3:20 AM55 °FClear.8 mph100%29.98 "Hg10 mi
2:50 AM57 °FClear.8 mph94%29.95 "Hg10 mi
2:20 AM57 °FClear.7 mph94%29.98 "Hg10 mi
1:50 AM57 °FClear.6 mph94%29.98 "Hg10 mi
1:20 AM55 °FClear.8 mph100%29.98 "Hg10 mi
12:50 AM57 °FClear.6 mph94%29.98 "Hg10 mi
12:20 AM57 °FClear.7 mph94%29.98 "Hg10 mi
11:50 PM
Fri, May 27
57 °FClear.2 mph100%29.98 "Hg10 mi
11:20 PM57 °FClear.1 mph100%30.01 "Hg10 mi
10:50 PM57 °FClear.1 mph100%30.01 "Hg10 mi
10:20 PM61 °FScattered clouds.2 mph94%30.01 "HgN/A
9:50 PM61 °FScattered clouds.6 mph100%29.98 "HgN/A
9:20 PM63 °FScattered clouds.1 mph88%29.98 "HgN/A
8:50 PM64 °FScattered clouds.2 mph78%29.98 "HgN/A
8:20 PM64 °FScattered clouds.2 mph83%29.98 "HgN/A
7:50 PM64 °FScattered clouds.3 mph78%29.98 "HgN/A
7:20 PM64 °FScattered clouds.8 mph78%29.98 "HgN/A
6:50 PM70 °FPassing clouds.3 mph53%29.98 "HgN/A
6:20 PM70 °FSunny.3 mph53%29.98 "Hg10 mi
5:50 PM70 °FPassing clouds.3 mph53%29.98 "HgN/A
5:20 PM70 °FPassing clouds.5 mph50%29.98 "HgN/A
4:50 PM70 °FPassing clouds.5 mph50%29.98 "HgN/A
4:20 PM70 °FPassing clouds.6 mph53%29.98 "HgN/A
3:50 PM70 °FPassing clouds.6 mph57%30.01 "HgN/A
3:20 PM68 °FPassing clouds.3 mph53%30.01 "HgN/A
Weather by CustomWeather, © 2016

See weather overviewHow to use our weather pages